Location: Dos Palmas
(32.4468°N, 116.8732°W)
Time: 01:39:58
(UTC+00:00)

Cosmos 2026 Rocket - Pass Details

Date: 20 June 2021
Orbit: 939 x 1001 km, 82.9° (Epoch: 27 July)

Event Time Altitude Azimuth Distance (km) Brightness Sun altitude
Exits shadow 09:14:11 56° 105° (ESE) 1,154 4.3 -30.5°
Maximum altitude 09:14:31 57° 92° (E) 1,146 4.3 -30.5°
Drops below altitude 10° 09:20:41 10° 15° (NNE) 2,757 7.3 -30.0°
Sets 09:23:16 0° 12° (NNE) 3,716 8.2 -29.8°
